Temp
-2 -2 -2 -2 -2 -3 -3 -3 -4 -4 -4 -5 -5 -5 -5 -4 -4 -4 -4 -5 -5 -5 -6 -6 -6 -5 -5 -5 -5 -5 -5 -5 -5 -6 -5 -4 -4 -4 -5 -5 -5 -5 -6 -6 -6
-2 -2 -2 -2 -2 -3 -3 -3 -3 -4 -4 -5 -5 -5 -5 -5 -5 -4 -5 -5 -5 -5 -6 -6 -6 -6 -5 -5 -5 -5 -5 -5 -5 -5 -5 -5 -4 -4 -5 -5 -5 -5 -5 -6 -5
-2 -3 -2 -3 -3 -3 -3 -3 -3 -4 -4 -5 -5 -5 -5 -5 -5 -4 -5 -5 -5 -5 -6 -7 -7 -6 -5 -5 -5 -5 -5 -5 -5 -5 -5 -5 -4 -4 -5 -5 -5 -5 -6 -6 -6
-3 -3 -3 -3 -3 -3 -3 -3 -4 -4 -4 -5 -6 -6 -6 -6 -5 -6 -5 -5 -5 -5 -7 -8 -7 -6 -6 -5 -5 -5 -5 -5 -4 -4 -5 -6 -5 -4 -4 -5 -5 -5 -5 -6 -6
-3 -3 -3 -3 -3 -4 -4 -4 -4 -5 -5 -5 -6 -6 -6 -6 -6 -6 -6 -6 -5 -6 -7 -8 -7 -7 -6 -6 -6 -5 -5 -5 -5 -5 -5 -5 -5 -4 -5 -5 -5 -5 -5 -5 -6
-3 -3 -3 -4 -4 -4 -5 -5 -6 -6 -7 -7 -8 -7 -7 -7 -7 -6 -6 -6 -6 -6 -7 -8 -7 -7 -6 -6 -6 -6 -5 -5 -5 -6 -5 -6 -5 -4 -5 -5 -5 -5 -5 -5 -5
-3 -3 -4 -5 -5 -6 -6 -6 -7 -8 -8 -8 -8 -8 -8 -7 -8 -7 -7 -7 -6 -6 -6 -8 -8 -7 -6 -6 -6 -6 -5 -5 -5 -5 -5 -5 -5 -5 -5 -5 -5 -5 -5 -5 -5
-3 -4 -5 -5 -6 -7 -7 -8 -8 -9 -9 -9 -8 -8 -8 -9 -8 -8 -7 -7 -7 -7 -6 -7 -8 -7 -7 -6 -6 -6 -6 -5 -6 -5 -5 -5 -6 -6 -5 -5 -5 -4 -5 -5 -5
-4 -5 -5 -6 -7 -8 -9 -9 -9 -9 -9 -9 -9 -9 -9 -9 -9 -9 -8 -8 -8 -8 -7 -7 -8 -8 -7 -7 -7 -6 -7 -6 -6 -5 -5 -5 -5 -6 -5 -4 -4 -4 -5 -4 -5
-4 -5 -6 -7 -8 -9 -10 -10 -10 -10 -10 -10 -9 -10 -9 -9 -9 -9 -9 -8 -8 -8 -8 -8 -8 -8 -7 -7 -8 -8 -8 -6 -5 -5 -5 -5 -5 -6 -5 -5 -4 -4 -4 -5 -5
-5 -6 -7 -8 -9 -10 -10 -10 -10 -10 -10 -10 -10 -10 -10 -10 -10 -9 -9 -9 -8 -9 -8 -8 -8 -8 -8 -7 -7 -8 -7 -6 -5 -6 -5 -5 -6 -6 -5 -5 -5 -4 -4 -5 -4
-6 -7 -8 -9 -10 -10 -10 -10 -10 -11 -11 -11 -11 -10 -10 -10 -10 -9 -10 -9 -9 -9 -9 -8 -8 -8 -8 -8 -8 -7 -9 -6 -6 -6 -5 -5 -6 -6 -5 -5 -6 -5 -4 -5 -4
-7 -8 -9 -10 -10 -10 -10 -10 -11 -11 -11 -11 -11 -11 -10 -10 -10 -10 -10 -10 -9 -9 -9 -9 -8 -9 -8 -8 -8 -8 -8 -7 -7 -7 -6 -6 -6 -5 -5 -5 -6 -5 -5 -5 -5
-7 -8 -9 -10 -10 -10 -10 -11 -11 -12 -13 -13 -12 -11 -11 -11 -11 -10 -10 -10 -10 -10 -9 -9 -10 -9 -8 -8 -8 -10 -8 -6 -7 -6 -6 -7 -6 -6 -6 -6 -6 -6 -5 -6 -5
-8 -9 -10 -10 -11 -10 -10 -11 -12 -12 -13 -14 -13 -12 -12 -12 -11 -11 -10 -10 -10 -10 -9 -9 -9 -9 -8 -8 -8 -9 -8 -7 -5 -7 -6 -8 -8 -7 -7 -5 -5 -5 -5 -6 -5
-8 -10 -10 -11 -11 -11 -11 -12 -12 -13 -14 -15 -13 -14 -13 -12 -12 -11 -11 -11 -11 -10 -10 -12 -10 -9 -9 -9 -8 -9 -8 -8 -8 -7 -7 -7 -7 -6 -6 -6 -6 -6 -5 -5 -5
-9 -10 -11 -11 -11 -11 -11 -12 -13 -14 -14 -15 -15 -15 -15 -15 -14 -12 -11 -11 -11 -10 -10 -10 -9 -9 -9 -9 -10 -8 -8 -9 -8 -9 -7 -7 -8 -7 -7 -7 -7 -6 -6 -6 -5
-9 -10 -11 -11 -11 -11 -11 -12 -15 -14 -14 -13 -14 -14 -15 -14 -15 -13 -12 -12 -12 -12 -13 -11 -10 -10 -9 -9 -10 -8 -9 -9 -9 -8 -7 -7 -8 -8 -7 -7 -7 -7 -7 -6 -6
-10 -11 -11 -12 -11 -11 -12 -15 -13 -13 -14 -14 -14 -15 -14 -14 -13 -15 -14 -14 -14 -12 -13 -13 -12 -11 -10 -9 -10 -10 -10 -10 -8 -8 -7 -7 -7 -7 -8 -7 -7 -7 -8 -7 -5
-11 -11 -12 -12 -12 -12 -11 -13 -13 -13 -14 -14 -15 -14 -14 -14 -14 -14 -14 -14 -13 -13 -13 -13 -12 -12 -10 -10 -10 -10 -11 -11 -10 -8 -8 -7 -7 -8 -7 -7 -7 -7 -7 -6 -7
-11 -12 -12 -12 -12 -12 -13 -12 -12 -13 -13 -13 -14 -16 -15 -14 -14 -14 -14 -13 -14 -14 -13 -14 -13 -12 -12 -9 -9 -9 -9 -11 -10 -9 -8 -7 -7 -7 -7 -7 -7 -7 -7 -6 -6
-11 -12 -12 -12 -12 -12 -12 -12 -12 -13 -13 -13 -14 -14 -16 -15 -15 -13 -13 -14 -14 -14 -14 -13 -13 -13 -12 -12 -10 -12 -11 -11 -10 -9 -9 -9 -7 -7 -8 -8 -8 -7 -7 -7 -6
-12 -12 -13 -13 -13 -14 -13 -13 -13 -13 -13 -13 -14 -14 -14 -16 -15 -15 -15 -15 -14 -14 -15 -14 -13 -13 -11 -12 -12 -11 -12 -11 -11 -10 -9 -9 -9 -8 -8 -8 -8 -7 -8 -7 -6
-12 -13 -13 -13 -13 -13 -13 -13 -13 -13 -13 -13 -14 -14 -15 -15 -15 -15 -15 -15 -15 -15 -14 -14 -14 -13 -12 -12 -12 -12 -12 -12 -11 -10 -10 -9 -9 -10 -9 -9 -9 -8 -8 -7 -7
-12 -13 -13 -15 -13 -13 -13 -13 -13 -13 -13 -14 -14 -14 -15 -15 -16 -15 -15 -15 -15 -15 -15 -14 -14 -13 -11 -12 -12 -12 -11 -12 -11 -10 -10 -9 -10 -8 -8 -8 -9 -8 -8 -8 -7
-13 -13 -13 -13 -14 -14 -14 -13 -13 -14 -14 -14 -14 -14 -15 -15 -15 -14 -16 -15 -15 -15 -15 -15 -14 -13 -11 -12 -12 -12 -12 -12 -12 -11 -11 -10 -8 -6 -11 -9 -8 -9 -9 -8 -8
-13 -13 -13 -13 -14 -14 -13 -13 -13 -14 -14 -14 -14 -15 -15 -15 -15 -15 -16 -15 -14 -14 -15 -14 -12 -13 -13 -13 -12 -12 -12 -12 -12 -11 -11 -11 -9 -9 -8 -9 -9 -9 -9 -9 -8
Height
5873 5869 5866 5863 5861 5859 5858 5855 5855 5855 5855 5856 5857 5859 5860 5862 5864 5867 5870 5872 5872 5874 5877 5880 5884 5886 5888 5891 5892 5892 5893 5892 5892 5892 5891 5894 5895 5898 5901 5902 5904 5905 5905 5906 5905
5870 5867 5863 5861 5858 5856 5854 5852 5851 5850 5850 5850 5851 5854 5856 5857 5860 5863 5867 5868 5870 5872 5874 5877 5881 5886 5888 5890 5891 5891 5892 5892 5891 5890 5890 5894 5895 5897 5901 5903 5905 5906 5906 5907 5908
5868 5864 5860 5857 5854 5852 5850 5848 5846 5845 5845 5845 5845 5847 5850 5852 5854 5860 5862 5865 5867 5869 5871 5876 5881 5884 5887 5888 5890 5891 5891 5890 5889 5888 5888 5891 5894 5896 5899 5902 5904 5906 5906 5908 5909
5864 5861 5857 5852 5849 5846 5844 5843 5841 5840 5839 5838 5839 5840 5842 5845 5848 5854 5858 5861 5865 5867 5870 5874 5878 5882 5885 5887 5889 5891 5890 5888 5888 5886 5885 5890 5893 5896 5898 5901 5905 5908 5907 5908 5910
5860 5855 5851 5847 5844 5841 5839 5836 5835 5833 5832 5831 5832 5832 5835 5838 5842 5848 5852 5856 5861 5864 5867 5871 5875 5879 5883 5886 5888 5890 5889 5887 5887 5886 5884 5885 5892 5895 5899 5903 5906 5909 5910 5910 5910
5854 5850 5845 5841 5838 5835 5832 5829 5827 5825 5824 5824 5824 5825 5827 5830 5838 5842 5846 5851 5856 5860 5864 5869 5872 5877 5881 5884 5886 5887 5888 5887 5884 5885 5885 5887 5890 5896 5899 5902 5906 5909 5910 5910 5910
5849 5845 5840 5836 5832 5828 5825 5822 5820 5818 5818 5817 5818 5820 5821 5823 5830 5836 5841 5845 5850 5855 5861 5865 5869 5875 5879 5883 5885 5886 5888 5886 5884 5884 5884 5888 5891 5895 5898 5902 5906 5909 5909 5912 5912
5845 5840 5835 5830 5826 5823 5819 5816 5814 5812 5810 5810 5810 5812 5815 5820 5824 5829 5835 5841 5846 5851 5857 5862 5867 5873 5877 5881 5884 5885 5886 5885 5882 5879 5881 5887 5890 5894 5899 5902 5905 5908 5909 5912 5913
5840 5835 5830 5825 5820 5817 5813 5810 5808 5805 5804 5803 5804 5805 5809 5813 5817 5823 5829 5836 5841 5847 5853 5860 5865 5871 5876 5879 5882 5884 5886 5884 5884 5882 5883 5887 5890 5894 5897 5901 5904 5907 5909 5912 5913
5835 5830 5824 5820 5814 5811 5808 5805 5801 5798 5796 5796 5797 5801 5803 5807 5813 5817 5824 5831 5838 5844 5850 5855 5861 5868 5873 5876 5882 5885 5885 5883 5880 5883 5884 5886 5889 5892 5897 5900 5903 5906 5909 5911 5913
5830 5824 5820 5815 5810 5807 5805 5800 5797 5793 5789 5790 5792 5795 5798 5804 5809 5814 5820 5826 5834 5841 5846 5851 5857 5865 5872 5875 5878 5883 5885 5882 5884 5883 5885 5881 5889 5895 5897 5900 5901 5905 5907 5910 5912
5825 5820 5816 5811 5808 5805 5800 5796 5792 5789 5787 5786 5788 5790 5794 5799 5805 5810 5817 5824 5830 5838 5843 5849 5853 5860 5866 5870 5875 5880 5882 5880 5874 5882 5882 5884 5889 5893 5895 5894 5898 5904 5906 5910 5912
5821 5816 5812 5808 5805 5802 5798 5794 5790 5787 5785 5785 5786 5789 5793 5797 5801 5807 5813 5819 5826 5833 5840 5848 5854 5856 5861 5867 5873 5877 5880 5877 5878 5879 5881 5883 5887 5889 5891 5892 5895 5899 5903 5908 5911
5817 5813 5809 5807 5804 5800 5797 5793 5790 5788 5785 5787 5786 5788 5792 5796 5800 5804 5808 5816 5822 5829 5836 5843 5846 5849 5857 5864 5870 5875 5878 5873 5871 5882 5882 5881 5884 5886 5888 5890 5893 5897 5901 5907 5911
5814 5810 5807 5804 5803 5800 5797 5793 5791 5790 5792 5790 5787 5787 5790 5794 5795 5801 5806 5812 5818 5825 5831 5838 5840 5845 5853 5861 5867 5870 5869 5874 5858 5879 5880 5879 5885 5886 5886 5888 5888 5895 5898 5905 5910
5811 5808 5805 5804 5802 5799 5796 5794 5793 5793 5793 5792 5788 5789 5791 5793 5796 5797 5804 5809 5813 5820 5826 5832 5835 5843 5851 5857 5862 5861 5870 5871 5874 5878 5880 5880 5883 5885 5885 5886 5888 5892 5895 5900 5906
5809 5806 5803 5802 5801 5799 5796 5795 5795 5799 5794 5793 5793 5791 5794 5796 5795 5798 5802 5807 5813 5820 5824 5825 5832 5838 5846 5852 5853 5861 5867 5870 5875 5878 5885 5880 5885 5882 5883 5886 5886 5890 5894 5899 5904
5807 5804 5803 5801 5800 5798 5796 5797 5799 5796 5794 5792 5792 5792 5795 5800 5800 5797 5800 5805 5811 5817 5827 5826 5832 5835 5841 5846 5852 5859 5864 5869 5875 5883 5887 5883 5886 5879 5885 5886 5888 5889 5891 5896 5900
5804 5803 5802 5801 5800 5799 5797 5799 5798 5795 5794 5793 5794 5795 5797 5796 5796 5800 5799 5804 5809 5812 5823 5827 5830 5831 5836 5843 5848 5855 5857 5867 5873 5876 5876 5879 5879 5883 5884 5886 5887 5889 5892 5895 5898
5803 5802 5801 5800 5799 5799 5797 5796 5795 5794 5793 5791 5793 5793 5797 5796 5798 5801 5803 5806 5808 5809 5813 5819 5828 5829 5831 5837 5842 5849 5859 5865 5869 5875 5879 5879 5873 5877 5881 5884 5884 5887 5890 5893 5895
5801 5801 5800 5799 5799 5798 5797 5796 5793 5791 5790 5788 5788 5790 5792 5791 5797 5795 5794 5794 5802 5803 5807 5812 5820 5826 5827 5831 5838 5845 5849 5857 5869 5875 5873 5881 5878 5870 5877 5881 5882 5883 5887 5889 5889
5800 5799 5799 5798 5799 5797 5796 5794 5793 5790 5788 5786 5785 5784 5787 5787 5791 5791 5787 5789 5788 5796 5802 5808 5816 5822 5825 5829 5833 5840 5846 5854 5860 5866 5870 5870 5866 5850 5864 5874 5879 5881 5882 5887 5886
5797 5797 5797 5797 5797 5796 5795 5793 5792 5789 5787 5785 5783 5782 5782 5784 5786 5786 5782 5783 5788 5794 5798 5805 5811 5819 5821 5828 5828 5834 5842 5847 5856 5864 5869 5872 5866 5862 5862 5869 5874 5876 5877 5881 5884
5795 5795 5795 5794 5794 5793 5792 5791 5790 5787 5786 5784 5782 5781 5780 5781 5781 5781 5779 5780 5784 5787 5791 5797 5807 5815 5817 5822 5828 5828 5834 5842 5853 5858 5865 5870 5861 5859 5863 5867 5869 5872 5873 5877 5879
5792 5793 5792 5793 5791 5791 5790 5789 5788 5786 5784 5782 5780 5779 5778 5777 5777 5776 5774 5776 5780 5784 5788 5794 5801 5806 5808 5815 5822 5828 5831 5839 5845 5854 5860 5864 5860 5854 5860 5865 5866 5867 5867 5872 5875
5789 5789 5789 5789 5789 5789 5788 5787 5786 5784 5783 5780 5779 5777 5775 5774 5772 5762 5769 5774 5777 5779 5782 5790 5795 5802 5805 5808 5816 5824 5830 5834 5840 5845 5851 5848 5856 5841 5833 5853 5856 5862 5864 5865 5871
5785 5785 5786 5787 5787 5787 5786 5785 5783 5782 5781 5778 5776 5774 5772 5772 5770 5769 5771 5770 5775 5776 5781 5784 5789 5797 5806 5807 5811 5818 5824 5829 5836 5841 5845 5845 5844 5835 5828 5850 5849 5856 5859 5862 5866
Wind_Speed
31 30 29 28 22 16 15 19 18 18 19 20 22 23 22 21 19 16 13 11 14 19 23 22 20 16 13 9 6 3 2 4 5 7 21 19 19 18 17 18 18 15 13 12 12
30 31 31 30 26 20 15 17 20 21 21 20 22 25 26 24 23 20 13 13 15 20 23 24 22 17 13 9 6 5 3 4 5 8 15 28 22 22 20 19 17 15 12 10 11
31 32 33 33 29 23 18 16 19 22 23 22 22 26 29 28 26 21 18 14 16 23 26 23 18 16 14 11 7 6 5 6 6 5 9 32 25 25 24 21 20 19 15 11 12
33 33 35 34 30 24 20 19 20 22 25 26 24 26 30 33 34 24 21 18 16 21 26 23 20 17 15 12 9 8 8 9 9 5 14 32 31 28 25 23 20 16 18 16 12
35 36 37 36 29 24 22 21 23 25 27 29 27 28 32 35 35 30 26 22 17 19 27 25 24 21 17 14 10 9 8 8 8 14 21 27 31 27 24 21 19 18 15 14 14
36 38 38 34 27 25 24 25 26 27 28 28 26 29 32 38 32 32 30 26 23 21 28 29 26 23 18 15 14 11 6 5 8 9 15 30 28 26 24 23 22 20 17 14 14
38 39 34 30 27 26 26 28 28 27 26 23 24 26 32 34 35 35 33 31 28 25 27 31 28 22 21 16 14 11 7 5 8 15 26 30 27 28 26 25 24 21 18 14 12
39 36 31 29 29 28 27 27 27 26 23 20 22 25 30 29 34 36 35 34 32 28 26 29 28 23 20 17 14 11 8 3 10 14 33 29 25 25 27 26 24 21 19 15 13
37 33 31 29 29 27 26 26 24 25 23 20 21 24 29 29 31 35 36 35 35 32 29 25 30 23 21 15 14 12 5 7 7 7 24 22 22 24 29 27 26 23 20 16 15
34 31 30 28 27 24 24 22 23 22 21 19 20 21 28 30 29 34 34 35 35 35 31 32 30 25 22 20 12 9 10 11 10 9 12 23 24 27 28 26 25 25 21 19 16
33 31 29 26 24 23 20 21 23 20 16 15 17 20 22 26 28 29 33 33 35 36 35 36 32 26 21 21 21 21 11 17 15 12 11 14 23 27 23 26 26 25 23 21 18
32 29 26 24 21 19 20 22 19 13 11 11 13 18 22 25 27 28 30 31 33 34 38 36 34 30 28 27 25 23 18 21 14 19 19 18 11 12 20 17 24 26 24 22 19
30 26 23 21 17 18 20 19 14 11 8 5 9 14 19 22 27 28 28 31 30 32 36 36 32 33 33 29 24 21 18 22 19 15 14 16 5 7 6 17 27 29 25 24 21
26 23 20 18 16 18 17 16 13 12 11 5 6 12 17 19 23 28 30 30 31 31 33 38 32 39 35 31 26 19 24 26 17 24 11 10 4 4 7 8 28 30 26 26 24
23 20 18 15 15 15 14 12 11 8 3 8 4 9 16 20 27 27 30 32 33 32 35 37 44 42 36 31 30 27 25 34 16 17 10 9 5 6 9 13 19 26 27 27 27
20 17 14 12 14 12 10 9 10 13 7 8 5 3 9 13 18 28 29 31 36 35 35 27 44 41 35 35 34 37 28 23 20 15 16 16 9 13 10 7 17 18 25 27 28
18 14 10 11 11 9 9 10 14 5 6 7 2 1 7 10 14 19 26 29 31 34 35 41 41 40 41 38 38 36 30 23 21 15 12 12 6 19 13 10 10 22 27 26 27
16 11 8 9 8 6 9 6 4 3 3 7 5 3 8 8 12 17 23 26 27 29 16 33 34 37 43 43 36 36 33 26 15 12 15 21 15 20 11 9 10 6 32 33 29
13 8 7 7 6 5 8 11 4 3 3 4 5 3 7 6 8 8 17 20 21 33 18 18 21 32 39 42 38 38 38 31 17 22 18 15 16 25 15 10 8 16 16 17 31
11 6 5 5 4 4 8 6 5 4 4 6 4 11 4 8 8 9 14 16 21 27 30 12 21 24 37 41 42 34 32 29 27 19 15 17 18 16 20 13 12 14 13 14 25
9 4 2 4 3 2 7 7 9 7 9 5 4 2 9 8 10 16 21 23 26 24 37 16 27 22 31 42 40 42 35 35 26 23 16 22 24 27 21 17 17 16 16 13 14
9 4 2 4 3 2 4 7 10 10 10 7 5 4 10 12 14 17 14 20 38 24 15 41 10 17 23 26 37 27 32 27 33 29 24 20 24 20 14 18 19 19 18 21 23
8 5 4 4 2 5 5 6 8 10 10 9 5 5 8 9 14 20 30 16 25 28 24 23 31 21 18 23 27 34 27 32 26 25 22 24 26 29 23 20 21 21 20 20 19
8 6 6 5 5 5 6 6 8 8 9 8 7 6 5 8 11 11 23 23 31 27 30 31 24 20 26 26 23 31 31 28 26 27 25 17 29 28 24 20 23 22 24 25 23
8 8 7 6 8 7 6 5 7 8 9 10 9 7 8 9 11 11 13 21 20 20 23 29 27 24 27 27 19 26 30 25 29 26 25 27 30 32 37 31 28 26 26 25 25
10 10 9 8 7 7 7 5 7 8 9 10 10 9 9 10 12 11 5 18 20 23 25 22 27 27 28 31 21 23 22 28 24 28 21 28 31 17 43 35 36 32 27 25 22
10 11 10 8 8 8 9 6 6 8 9 10 10 10 10 9 10 11 10 15 28 19 26 29 17 32 22 20 20 27 24 22 23 25 28 25 28 47 41 30 36 33 31 25 22
Wind_Direction
4 6 6 4 352 333 307 293 288 282 273 263 256 245 240 240 245 255 242 228 208 202 207 212 209 207 210 208 199 210 308 350 325 339 204 181 186 181 177 177 183 174 173 170 158
355 357 360 357 353 338 311 290 286 281 275 263 253 244 237 235 236 239 241 226 211 198 202 208 209 204 203 208 203 210 261 287 304 320 206 176 188 180 174 182 186 175 172 171 158
350 352 352 350 348 338 323 300 282 277 275 265 250 240 235 232 229 228 225 228 217 200 200 206 203 203 200 202 199 210 251 267 285 284 212 174 183 182 175 178 189 181 165 166 163
347 348 347 344 340 331 316 300 284 274 270 266 252 237 230 230 230 220 216 218 218 209 198 198 196 199 197 195 195 207 239 266 295 234 186 171 186 185 176 178 186 179 165 166 164
344 345 343 340 333 324 311 295 281 271 264 262 253 233 229 227 226 217 212 211 208 211 198 197 200 196 194 191 191 209 235 284 296 283 215 174 186 184 177 179 179 173 169 158 158
345 344 340 335 328 319 309 292 279 271 267 266 255 233 226 225 221 216 210 204 199 202 201 200 204 198 194 192 196 223 236 266 292 304 188 167 181 182 179 178 179 173 167 167 160
343 341 337 331 322 315 305 292 286 284 279 270 262 238 228 226 220 217 211 204 197 197 201 201 204 197 193 194 201 218 224 278 281 271 183 170 172 182 180 180 175 176 167 170 162
342 338 334 328 322 314 303 295 293 289 281 266 249 236 232 227 219 214 211 208 199 194 197 206 203 199 196 194 201 209 241 247 298 280 178 173 184 182 181 182 178 182 169 175 168
341 336 332 327 318 310 302 300 299 293 285 271 254 231 223 223 219 213 209 210 203 196 192 199 208 201 196 195 197 205 180 237 296 177 182 176 189 186 183 184 182 185 183 181 171
339 334 330 325 315 307 307 309 303 296 284 265 246 231 220 217 217 214 209 208 208 201 191 194 200 205 198 199 191 233 228 224 239 249 176 184 182 184 184 187 191 188 186 180 183
336 334 330 323 316 315 320 315 310 303 288 258 240 228 219 216 214 214 209 207 208 203 198 195 199 198 196 203 200 185 198 229 249 252 179 153 175 175 183 189 201 195 186 189 187
335 335 329 324 323 329 325 321 319 317 302 259 234 221 212 211 211 210 207 207 207 207 204 200 195 194 198 205 203 201 199 214 199 230 185 186 180 191 215 215 186 191 191 190 193
336 335 330 328 337 337 334 331 330 334 318 271 228 220 213 210 207 204 202 205 204 207 207 205 205 203 201 205 199 202 209 235 241 225 217 234 175 194 219 235 198 192 191 190 193
337 336 334 339 344 347 346 339 343 355 52 356 218 207 208 211 210 204 201 198 201 203 206 205 210 206 204 201 200 209 210 220 245 230 265 249 263 212 261 285 223 191 191 196 198
338 338 338 346 354 359 355 351 3 22 49 309 268 203 198 198 203 204 204 200 200 200 201 205 214 207 201 200 200 210 203 205 141 216 238 193 259 274 273 269 199 190 188 202 202
341 340 344 352 1 10 14 25 23 42 301 322 343 223 198 208 211 205 204 203 199 201 199 199 214 211 202 201 202 212 212 221 230 211 236 258 221 285 294 232 255 232 195 205 208
340 341 349 354 7 20 42 45 49 351 334 359 296 103 148 258 226 210 210 207 205 205 203 212 214 209 205 205 211 209 209 219 227 225 235 233 257 259 285 255 323 231 200 210 214
338 339 352 357 15 31 51 42 64 310 338 334 13 44 115 210 245 219 212 209 204 207 215 215 222 215 208 208 215 210 209 208 212 219 245 259 258 261 254 285 284 259 195 201 214
329 336 355 0 20 46 56 62 277 267 254 305 333 11 262 248 181 230 217 208 212 209 179 233 210 228 219 216 211 213 211 206 216 203 231 227 246 249 249 248 254 264 193 214 210
318 328 347 351 23 48 44 38 2 351 314 313 216 232 225 210 223 221 219 217 210 226 183 201 211 230 221 215 216 205 218 212 216 195 232 255 246 250 236 230 242 242 253 230 217
306 305 326 320 356 40 46 13 4 11 353 331 296 233 215 261 196 199 231 194 217 211 212 191 193 211 227 215 217 218 211 207 214 209 233 216 252 232 234 219 218 238 232 256 243
302 280 267 282 267 5 352 359 357 0 0 355 325 279 175 210 186 261 168 233 201 201 226 209 196 205 235 217 216 218 221 212 206 206 218 246 232 262 186 227 230 231 219 243 263
291 271 268 273 272 284 304 328 342 350 354 347 343 312 227 204 212 222 243 226 241 217 205 202 209 196 203 220 220 214 221 218 221 211 224 229 256 256 227 217 232 222 226 221 235
279 262 263 273 277 275 287 308 326 337 340 339 326 304 271 258 235 246 246 230 221 201 203 199 188 199 216 194 213 219 213 215 206 221 214 228 258 270 270 227 227 225 226 214 226
273 241 256 263 281 281 271 298 314 324 329 332 332 309 283 270 251 254 285 225 177 206 201 199 190 200 220 202 196 228 217 209 212 207 220 226 220 255 253 238 235 231 236 239 228
268 246 241 252 272 270 269 288 302 317 323 326 317 306 291 270 271 209 281 203 217 194 190 196 196 206 207 200 170 192 213 216 221 208 220 240 214 246 222 219 218 225 232 244 231
266 253 235 242 254 255 263 273 303 309 310 320 320 306 293 292 277 257 243 219 214 201 198 199 181 195 211 229 176 193 204 199 210 212 210 228 228 231 243 228 215 217 225 230 235